| time (UTC) | temp F | wind direction | speed MPH | gust MPH | rain 1hr in | rain 24hr in | rain mn in | humidity % | barometer mb |
| 20260507123817 | 52 | 262 | 0.0 | 3.0 | 0.00 | 0.00 | 0.00 | 56 | 1012.8 |
| 20260507122317 | 49 | 262 | 0.0 | 10.0 | 0.00 | 0.00 | 0.00 | 57 | 1013.0 |
| 20260507120817 | 49 | 262 | 0.0 | 10.0 | 0.00 | 0.00 | 0.00 | 57 | 1012.9 |
| 20260507115317 | 49 | 262 | 0.0 | 10.0 | 0.00 | 0.00 | 0.00 | 57 | 1012.9 |
| 20260507113818 | 49 | 262 | 0.0 | 10.0 | 0.00 | 0.00 | 0.00 | 57 | 1012.9 |
| 20260507112318 | 49 | 262 | 0.0 | 10.0 | 0.00 | 0.00 | 0.00 | 57 | 1012.7 |
| 20260507110818 | 49 | 262 | 0.0 | 10.0 | 0.00 | 0.00 | 0.00 | 57 | 1012.4 |
| 20260507105318 | 49 | 262 | 0.0 | 10.0 | 0.00 | 0.00 | 0.00 | 57 | 1012.3 |
| 20260507103819 | 49 | 262 | 0.0 | 10.0 | 0.00 | 0.00 | 0.00 | 57 | 1012.1 |
| 20260507102318 | 49 | 262 | 0.0 | 10.0 | 0.00 | 0.00 | 0.00 | 57 | 1012.0 |
| 20260507100818 | 49 | 262 | 0.0 | 10.0 | 0.00 | 0.00 | 0.00 | 57 | 1011.9 |
| 20260507095318 | 49 | 262 | 0.0 | 10.0 | 0.00 | 0.00 | 0.00 | 57 | 1011.8 |
| 20260507093818 | 49 | 262 | 0.0 | 10.0 | 0.00 | 0.00 | 0.00 | 57 | 1011.7 |
| 20260507092318 | 49 | 262 | 0.0 | 10.0 | 0.00 | 0.00 | 0.00 | 57 | 1011.6 |
| 20260507090818 | 49 | 262 | 0.0 | 10.0 | 0.00 | 0.00 | 0.00 | 57 | 1011.5 |
| 20260507085318 | 49 | 262 | 0.0 | 10.0 | 0.00 | 0.00 | 0.00 | 57 | 1011.4 |
| 20260507083818 | 49 | 340 | 1.0 | 10.0 | 0.00 | 0.00 | 0.00 | 58 | 1011.2 |
| 20260507082318 | 49 | 30 | 0.0 | 4.0 | 0.00 | 0.00 | 0.00 | 59 | 1011.4 |
| 20260507080818 | 48 | 8 | 4.0 | 4.0 | 0.00 | 0.00 | 0.00 | 61 | 1011.4 |
| 20260507075318 | 49 | 86 | 2.0 | 3.0 | 0.00 | 0.00 | 0.00 | 61 | 1011.4 |
| 20260507073818 | 49 | 316 | 0.0 | 2.0 | 0.00 | 0.00 | 0.00 | 61 | 1011.5 |
| 20260507072318 | 49 | 302 | 0.0 | 2.0 | 0.00 | 0.00 | 0.00 | 63 | 1011.5 |
| 20260507070818 | 48 | 224 | 0.0 | 1.0 | 0.00 | 0.00 | 0.00 | 66 | 1011.6 |
| 20260507065318 | 49 | 231 | 0.0 | 1.0 | 0.00 | 0.00 | 0.00 | 70 | 1011.8 |
| 20260507063818 | 49 | 229 | 0.0 | 2.0 | 0.00 | 0.00 | 0.00 | 66 | 1011.8 |
| 20260507062318 | 50 | 126 | 2.0 | 3.0 | 0.00 | 0.00 | 0.00 | 66 | 1011.7 |
| 20260507060820 | 51 | 21 | 0.0 | 3.0 | 0.00 | 0.00 | 0.00 | 63 | 1011.6 |
| 20260507055318 | 50 | 15 | 0.0 | 3.0 | 0.00 | 0.00 | 0.00 | 62 | 1011.8 |
| 20260507053818 | 50 | 316 | 0.0 | 0.0 | 0.00 | 0.00 | 0.00 | 66 | 1011.7 |
| 20260507052318 | 51 | 335 | 0.0 | 3.0 | 0.00 | 0.00 | 0.00 | 66 | 1011.9 |
| 20260507050818 | 51 | 15 | 0.0 | 1.0 | 0.00 | 0.00 | 0.00 | 69 | 1011.9 |
| 20260507045318 | 51 | 321 | 1.0 | 6.0 | 0.00 | 0.00 | 0.00 | 68 | 1011.9 |
| 20260507043818 | 52 | 244 | 1.0 | 2.0 | 0.00 | 0.00 | 0.00 | 69 | 1011.9 |
| 20260507042318 | 52 | 23 | 3.0 | 4.0 | 0.00 | 0.00 | 0.00 | 69 | 1011.8 |
| 20260507040818 | 53 | 300 | 1.0 | 2.0 | 0.00 | 0.00 | 0.00 | 70 | 1011.9 |
| 20260507035318 | 53 | 197 | 1.0 | 7.0 | 0.00 | 0.00 | 0.19 | 69 | 1011.5 |
| 20260507033818 | 54 | 155 | 1.0 | 10.0 | 0.00 | 0.00 | 0.19 | 68 | 1011.5 |
| 20260507032318 | 54 | 34 | 1.0 | 6.0 | 0.00 | 0.00 | 0.19 | 69 | 1011.5 |
| 20260507030818 | 53 | 314 | 2.0 | 3.0 | 0.00 | 0.00 | 0.19 | 72 | 1011.4 |
| 20260507025319 | 54 | 244 | 0.0 | 2.0 | 0.00 | 0.00 | 0.19 | 74 | 1011.3 |
| 20260507023819 | 54 | 232 | 0.0 | 2.0 | 0.00 | 0.00 | 0.19 | 74 | 1011.0 |
| 20260507022319 | 54 | 353 | 1.0 | 2.0 | 0.00 | 0.00 | 0.19 | 73 | 1010.4 |
| 20260507020819 | 54 | 104 | 0.0 | 4.0 | 0.00 | 0.00 | 0.19 | 73 | 1010.6 |
| 20260507015319 | 54 | 304 | 1.0 | 1.0 | 0.00 | 0.00 | 0.19 | 78 | 1010.8 |
| 20260507013819 | 54 | 314 | 0.0 | 3.0 | 0.00 | 0.00 | 0.19 | 79 | 1010.7 |
| 20260507012319 | 54 | 359 | 0.0 | 3.0 | 0.00 | 0.00 | 0.19 | 80 | 1010.6 |
| 20260507010819 | 54 | 271 | 0.0 | 1.0 | 0.00 | 0.00 | 0.19 | 80 | 1011.0 |
| 20260507005319 | 54 | 236 | 0.0 | 3.0 | 0.00 | 0.00 | 0.19 | 80 | 1011.3 |
| 20260507003819 | 55 | 245 | 0.0 | 8.0 | 0.00 | 0.00 | 0.19 | 77 | 1010.8 |
| 20260507002319 | 55 | 347 | 1.0 | 5.0 | 0.00 | 0.00 | 0.19 | 76 | 1010.8 |
| 20260507000819 | 56 | 20 | 5.0 | 8.0 | 0.00 | 0.00 | 0.19 | 76 | 1010.6 |
| 20260506235319 | 56 | 347 | 2.0 | 9.0 | 0.00 | 0.00 | 0.19 | 76 | 1010.1 |
| 20260506233819 | 56 | 27 | 3.0 | 7.0 | 0.00 | 0.00 | 0.19 | 78 | 1009.7 |
| 20260506232319 | 57 | 32 | 3.0 | 3.0 | 0.00 | 0.00 | 0.19 | 79 | 1009.3 |
| 20260506230819 | 57 | 255 | 0.0 | 6.0 | 0.00 | 0.00 | 0.19 | 79 | 1009.1 |
| 20260506225319 | 57 | 56 | 1.0 | 10.0 | 0.00 | 0.00 | 0.19 | 78 | 1009.1 |
| 20260506223819 | 58 | 26 | 6.0 | 10.0 | 0.00 | 0.00 | 0.19 | 77 | 1009.0 |
| 20260506222319 | 58 | 216 | 0.0 | 2.0 | 0.00 | 0.00 | 0.19 | 78 | 1008.7 |
| 20260506220819 | 59 | 166 | 0.0 | 2.0 | 0.00 | 0.00 | 0.19 | 79 | 1008.6 |
| 20260506215319 | 60 | 357 | 0.0 | 5.0 | 0.00 | 0.00 | 0.19 | 76 | 1008.5 |
| 20260506213819 | 60 | 225 | 0.0 | 4.0 | 0.00 | 0.00 | 0.19 | 75 | 1007.9 |
| 20260506212319 | 60 | 211 | 1.0 | 7.0 | 0.00 | 0.00 | 0.19 | 75 | 1008.0 |
| 20260506210819 | 61 | 357 | 1.0 | 6.0 | 0.00 | 0.00 | 0.19 | 77 | 1007.7 |
| 20260506205319 | 61 | 302 | 5.0 | 9.0 | 0.00 | 0.00 | 0.19 | 77 | 1007.2 |
| 20260506203819 | 61 | 34 | 7.0 | 9.0 | 0.00 | 0.00 | 0.19 | 80 | 1007.2 |
| 20260506202319 | 62 | 194 | 2.0 | 4.0 | 0.00 | 0.00 | 0.19 | 81 | 1006.9 |
| 20260506200819 | 63 | 182 | 1.0 | 5.0 | 0.00 | 0.00 | 0.19 | 80 | 1006.9 |
| 20260506195319 | 64 | 153 | 2.0 | 4.0 | 0.00 | 0.00 | 0.19 | 78 | 1006.6 |
| 20260506193819 | 65 | 72 | 1.0 | 3.0 | 0.00 | 0.00 | 0.19 | 79 | 1006.1 |
| 20260506192319 | 65 | 217 | 1.0 | 4.0 | 0.00 | 0.00 | 0.19 | 81 | 1006.1 |
| 20260506190819 | 64 | 224 | 1.0 | 4.0 | 0.00 | 0.00 | 0.19 | 85 | 1006.2 |
| 20260506185319 | 63 | 95 | 0.0 | 4.0 | 0.00 | 0.00 | 0.19 | 88 | 1006.2 |
| 20260506183820 | 62 | 60 | 0.0 | 10.0 | 0.00 | 0.00 | 0.19 | 91 | 1006.0 |
| 20260506182320 | 62 | 315 | 0.0 | 2.0 | 0.00 | 0.00 | 0.19 | 92 | 1005.9 |
| 20260506180820 | 62 | 96 | 0.0 | 1.0 | 0.00 | 0.00 | 0.19 | 91 | 1006.0 |
| 20260506175320 | 62 | 79 | 0.0 | 2.0 | 0.00 | 0.00 | 0.19 | 92 | 1005.9 |
| 20260506173820 | 62 | 151 | 0.0 | 3.0 | 0.00 | 0.00 | 0.19 | 92 | 1005.8 |
| 20260506172320 | 62 | 169 | 1.0 | 3.0 | 0.00 | 0.00 | 0.19 | 92 | 1005.9 |
| 20260506170820 | 61 | 226 | 0.0 | 3.0 | 0.00 | 0.00 | 0.19 | 92 | 1005.8 |
| 20260506165320 | 61 | 213 | 1.0 | 3.0 | 0.00 | 0.00 | 0.19 | 93 | 1006.0 |
| 20260506163820 | 60 | 186 | 0.0 | 3.0 | 0.00 | 0.00 | 0.19 | 93 | 1005.9 |
| 20260506162320 | 60 | 344 | 0.0 | 3.0 | 0.00 | 0.00 | 0.18 | 92 | 1006.0 |
| 20260506160820 | 60 | 309 | 1.0 | 3.0 | 0.00 | 0.00 | 0.18 | 90 | 1005.9 |
| 20260506155320 | 60 | 316 | 1.0 | 4.0 | 0.00 | 0.00 | 0.18 | 90 | 1005.8 |
| 20260506153820 | 60 | 268 | 0.0 | 4.0 | 0.00 | 0.00 | 0.18 | 90 | 1005.8 |
| 20260506152320 | 61 | 142 | 2.0 | 5.0 | 0.00 | 0.00 | 0.18 | 90 | 1005.5 |
| 20260506150820 | 60 | 200 | 1.0 | 5.0 | 0.00 | 0.00 | 0.18 | 91 | 1005.5 |
| 20260506145320 | 60 | 192 | 3.0 | 5.0 | 0.00 | 0.00 | 0.18 | 92 | 1005.3 |
| 20260506143820 | 59 | 136 | 0.0 | 2.0 | 0.00 | 0.00 | 0.18 | 94 | 1005.1 |
| 20260506142320 | 58 | 172 | 0.0 | 2.0 | 0.00 | 0.00 | 0.18 | 94 | 1005.4 |
| 20260506140820 | 58 | 214 | 0.0 | 3.0 | 0.00 | 0.00 | 0.18 | 94 | 1005.5 |
| 20260506135320 | 57 | 207 | 1.0 | 4.0 | 0.00 | 0.00 | 0.17 | 94 | 1005.8 |
| 20260506133820 | 57 | 246 | 0.0 | 2.0 | 0.00 | 0.00 | 0.16 | 95 | 1005.9 |
| 20260506132320 | 57 | 182 | 0.0 | 0.0 | 0.00 | 0.00 | 0.15 | 95 | 1005.7 |
| 20260506130820 | 57 | 181 | 0.0 | 0.0 | 0.00 | 0.00 | 0.14 | 96 | 1005.7 |
| 20260506125320 | 56 | 203 | 0.0 | 0.0 | 0.00 | 0.00 | 0.13 | 95 | 1005.7 |